INTELSAT 14 (IS-14)

Last updated on Sun Jun 21 2026 00:03:04 GMT+0000 (Coordinated Universal Time)

1 36097U 09064A 26171.38305711 -.00000278 00000+0 00000+0 0 9995 2 36097 0.0165 337.1078 0002399 111.3226 273.0700 1.00271535 60635
UTC large
Height (km)
Speed (km/s)
/
Latitude / Longitude
Inclination (degrees)
Orbital Period (minutes)
Azimuth
Elevation
Range (km)
Doppler Factor

Next 0 passes for location: London (51.5072 / 0.1276)

No passes found over London.
INTELSAT 14 (IS-14)